Home > Weather > Olsztyn > Past weeks

Flag for Poland Weather for the Past 2 Weeks in Olsztyn, Poland

Now
39 °F

Clear.


Feels Like: 32 °F
Forecast: 38 / 46 °F
Wind: 13 mph from South

Location: Kaliningrad/Khrabrovo Airport

Current Time: Feb 7, 2016 at 1:15:06 AM

Latest Report: Feb 7, 2016 at 12:00 AM


Visibility: 4 mi

Pressure: 29.89 "Hg

Humidity: 93%

Dew point: 37 °F

Location of OlsztynLocation

Historic Weather in Olsztyn — Graph

°F

Olsztyn Temperature Yesterday

Maximum temperature yesterday: 41 °F (at 1:30 PM)
Minimum temperature yesterday: 34 °F (at 12:00 AM)
Average temperature yesterday: 38 °F

High & Low Weather Summary for the Past Weeks

 TemperatureHumidityPressure
High46 °F (Jan 27, 7:30 PM)100% (Jan 24, 1:00 PM)30.48 "Hg (Jan 24, 1:00 PM)
Low9 °F (Jan 23, 8:00 AM)57% (Jan 29, 1:30 PM)29.36 "Hg (Jan 31, 12:00 AM)
Average37 °F88%29.85 "Hg
* Reported Jan 22 11:00 PM — Feb 6 11:00 PM, Olsztyn, Weather by CustomWeather, © 2016

Note: Actual official high and low records may vary slightly from our data, if they occured in-between our weather recording intervals... More about our weather records

Advertising

Olsztyn Weather History for the Previous 24 Hours

 ConditionsComfort  
Time TempWeatherWind HumidityBarometerVisibility
11:00 PM
Sat, Feb 6
39 °FFog.10 mph93%29.92 "Hg3 mi
10:00 PM39 °FFog.8 mph93%29.92 "Hg2 mi
9:30 PM39 °FFog.8 mph93%29.92 "Hg2 mi
9:00 PM37 °FFog.10 mph100%29.92 "Hg2 mi
8:30 PM39 °FFog.8 mph100%29.95 "Hg2 mi
8:00 PM39 °FFog.8 mph100%29.95 "Hg3 mi
7:30 PM39 °FFog.8 mph100%29.95 "Hg3 mi
7:00 PM41 °FFog.10 mph93%29.95 "Hg3 mi
6:30 PM41 °FFog.10 mph93%29.98 "Hg3 mi
6:00 PM41 °FOvercast.13 mph93%29.98 "Hg4 mi
5:30 PM41 °FMore clouds than sun.13 mph93%29.98 "Hg4 mi
5:00 PM41 °FFog.10 mph93%29.98 "Hg3 mi
4:30 PM41 °FFog.13 mph93%29.98 "Hg3 mi
4:00 PM41 °FFog.10 mph93%29.98 "Hg3 mi
3:30 PM41 °FLow clouds.10 mph93%29.98 "Hg4 mi
3:00 PM41 °FLow clouds.10 mph93%30.01 "Hg4 mi
2:30 PM41 °FLow clouds.10 mph93%30.01 "Hg4 mi
2:00 PM41 °FLow clouds.13 mph93%30.01 "Hg4 mi
1:30 PM41 °FMore clouds than sun.10 mph87%30.01 "Hg4 mi
1:00 PM39 °FMostly cloudy.13 mph93%30.04 "Hg4 mi
12:30 PM39 °FMore clouds than sun.15 mph93%30.04 "Hg4 mi
12:00 PM39 °FLow clouds.10 mph93%30.04 "Hg4 mi
11:30 AM39 °FLow clouds.13 mph93%30.04 "Hg4 mi
11:00 AM37 °FLow clouds.13 mph93%30.07 "Hg4 mi
10:30 AM37 °FLow clouds.10 mph93%30.07 "Hg4 mi
10:00 AM36 °FLow clouds.10 mph100%30.07 "Hg4 mi
9:30 AM36 °FLow clouds.8 mph93%30.07 "Hg4 mi
9:00 AM36 °FPassing clouds.8 mph93%30.07 "Hg6 mi
8:30 AM36 °FPassing clouds.8 mph93%30.07 "Hg5 mi
8:00 AM34 °FPassing clouds.6 mph100%30.07 "Hg5 mi
7:30 AM34 °FPassing clouds.6 mph100%30.07 "HgN/A
7:00 AM34 °FPassing clouds.6 mph100%30.07 "HgN/A
6:30 AM34 °FPassing clouds.6 mph100%30.07 "HgN/A
6:00 AM34 °FPassing clouds.6 mph100%30.07 "HgN/A
5:00 AM34 °FPassing clouds.6 mph100%30.09 "Hg5 mi
4:30 AM34 °FPassing clouds.6 mph93%30.09 "Hg4 mi
4:00 AM34 °FPassing clouds.6 mph100%30.09 "Hg4 mi
3:00 AM34 °FPassing clouds.6 mph100%30.09 "Hg4 mi
2:00 AM34 °FPassing clouds.6 mph100%30.09 "Hg5 mi
1:00 AM34 °FPassing clouds.3 mph93%30.09 "Hg5 mi
Weather by CustomWeather, © 2016

See weather overviewHow to use our weather pages